Tacoma Narrows, WA
on Wednesday, December 26, 2012

Wednesday
Previous Day Next Day
Daily Summary
 ActualAverageRecord
Temperature
Mean Temperature °F °F  
Max Temperature 44°F 43°F 50°F (2005)
Min Temperature 39°F 36°F 30°F (1996)
Degree Days
Heating Degree Days 24    
Moisture
Dew Point 38°F   
Average Humidity 87    
Maximum Humidity 93    
Minimum Humidity 81    
Precipitation
Precipitation 0.18 in in in ()
Wind
Wind Speed 5 mph   
Max Wind Speed 18 mph   
Max Gust Speed 25 mph   
Visibility 9 miles   
Events Rain   
Averages and records for this station are not official NWS values.
Key: T is trace of precipitation, MM is missing value
Source: NWS Daily Summary
Seasonal Weather Averages
Time(PST)TemperatureDew PointHumidity Pressure Visibility Wind DirectionWind SpeedGust SpeedPrecipitationEvents Conditions
12:28 AM 39.2°F 37.4°F 93% 29.69 in 2.0 miles Calm Calm - 0.00 in   Overcast
12:40 AM 39.2°F 37.4°F 93% 29.69 in 5.0 miles Calm Calm - 0.00 in   Overcast
12:53 AM 39.9°F 37.9°F 93% 29.70 in 6.0 miles Calm Calm - 0.00 in   Overcast
1:53 AM 39.9°F 37.9°F 93% 29.71 in 8.0 miles Calm Calm - 0.02 in Rain Light Rain
2:53 AM 41.0°F 37.0°F 86% 29.72 in 8.0 miles Calm Calm - 0.04 in Rain Light Rain
3:13 AM 39.2°F 37.4°F 93% 29.71 in 7.0 miles Calm Calm - 0.01 in Rain Light Rain
3:20 AM 39.2°F 37.4°F 93% 29.71 in 8.0 miles Calm Calm - 0.01 in Rain Light Rain
3:41 AM 39.2°F 37.4°F 93% 29.71 in 7.0 miles Calm Calm - 0.04 in Rain Light Rain
3:53 AM 39.9°F 37.0°F 89% 29.72 in 9.0 miles Calm Calm - 0.04 in Rain Light Rain
4:41 AM 41.0°F 37.4°F 87% 29.71 in 10.0 miles Calm Calm - 0.01 in   Overcast
4:53 AM 39.9°F 37.9°F 93% 29.72 in 9.0 miles Calm Calm - 0.02 in Rain Light Rain
5:15 AM 39.2°F 37.4°F 93% 29.72 in 9.0 miles Calm Calm - 0.00 in Rain Light Rain
5:53 AM 39.0°F 36.0°F 89% 29.73 in 7.0 miles Variable 4.6 mph - 0.00 in Rain Light Rain
6:53 AM 39.0°F 35.1°F 86% 29.74 in 10.0 miles Calm Calm - 0.01 in Rain Light Rain
7:53 AM 39.0°F 36.0°F 89% 29.75 in 10.0 miles ESE 4.6 mph - 0.01 in   Overcast
8:53 AM 39.9°F 37.0°F 89% 29.77 in 10.0 miles Calm Calm - N/A   Overcast
9:53 AM 41.0°F 37.9°F 89% 29.79 in 10.0 miles Calm Calm - N/A   Overcast
10:53 AM 42.1°F 39.0°F 89% 29.80 in 10.0 miles South 4.6 mph - N/A   Overcast
11:53 AM 44.1°F 39.0°F 82% 29.79 in 10.0 miles SSW 10.4 mph - N/A   Overcast
12:53 PM 44.1°F 39.9°F 85% 29.79 in 10.0 miles South 11.5 mph 20.7 mph 0.00 in Rain Light Rain
1:53 PM 44.1°F 39.9°F 85% 29.80 in 10.0 miles South 9.2 mph - 0.01 in Rain Light Rain
2:53 PM 44.1°F 39.0°F 82% 29.80 in 10.0 miles South 10.4 mph - 0.01 in   Overcast
3:53 PM 44.1°F 39.0°F 82% 29.81 in 10.0 miles South 12.7 mph - 0.00 in Rain Light Rain
4:44 PM 42.8°F 39.2°F 87% 29.81 in 10.0 miles South 13.8 mph - N/A Rain Light Rain
4:53 PM 43.0°F 37.9°F 82% 29.83 in 10.0 miles South 11.5 mph 24.2 mph 0.02 in Rain Light Rain
5:53 PM 43.0°F 37.9°F 82% 29.83 in 10.0 miles South 13.8 mph - 0.00 in   Overcast
6:53 PM 43.0°F 39.0°F 86% 29.83 in 10.0 miles South 17.3 mph 23.0 mph N/A   Overcast
7:53 PM 43.0°F 39.0°F 86% 29.86 in 10.0 miles South 18.4 mph 21.9 mph N/A   Overcast
8:51 PM 42.8°F 39.2°F 87% 29.86 in 10.0 miles South 16.1 mph 23.0 mph N/A   Overcast
8:53 PM 43.0°F 39.0°F 86% 29.87 in 10.0 miles South 16.1 mph - N/A   Overcast
9:12 PM 42.8°F 37.4°F 81% 29.86 in 10.0 miles South 17.3 mph 24.2 mph N/A   Overcast
9:28 PM 42.8°F 39.2°F 87% 29.87 in 10.0 miles South 17.3 mph 24.2 mph N/A   Overcast
9:37 PM 42.8°F 37.4°F 81% 29.87 in 10.0 miles South 16.1 mph 24.2 mph N/A   Overcast
9:53 PM 43.0°F 37.9°F 82% 29.89 in 10.0 miles South 18.4 mph 25.3 mph N/A   Overcast
10:32 PM 42.8°F 37.4°F 81% 29.89 in 10.0 miles South 17.3 mph 23.0 mph N/A   Overcast
10:53 PM 43.0°F 37.9°F 82% 29.91 in 10.0 miles South 18.4 mph 25.3 mph 0.00 in   Overcast
11:53 PM 43.0°F 37.9°F 82% 29.92 in 10.0 miles South 17.3 mph - N/A   Overcast
Moon Phase
Dec. 26 Dec. 28 Jan. 04 Jan. 11 Jan. 18
Sunrise:07:56 AM (PST) Moon Rise:03:25 PM (PST)
Sunset:04:26 PM (PST) Moon Set:06:22 AM (PST)

Copyright © 2014 The Weather Underground, Inc.